TimeEET,TemperatureF,Dew PointF,Humidity,Sea Level PressureIn,VisibilityMPH,Wind Direction,Wind SpeedMPH,Gust SpeedMPH,PrecipitationIn,Events,Conditions,WindDirDegrees,DateUTC
12:00 AM,59.0,48.2,67,30.15,6.2,North,10.4,-,N/A,,Partly Cloudy,360,2013-03-05 22:00:00
1:00 AM,59.0,48.2,67,30.15,6.2,North,9.2,-,N/A,,Partly Cloudy,350,2013-03-05 23:00:00
2:00 AM,59.0,48.2,67,30.15,6.2,North,11.5,-,N/A,,Partly Cloudy,360,2013-03-06 00:00:00
3:00 AM,59.0,50.0,72,30.15,6.2,NNW,9.2,-,N/A,,Partly Cloudy,340,2013-03-06 01:00:00
4:00 AM,59.0,50.0,72,30.15,6.2,North,10.4,-,N/A,,Partly Cloudy,350,2013-03-06 02:00:00
5:00 AM,57.2,48.2,72,30.18,6.2,North,6.9,-,N/A,,Scattered Clouds,10,2013-03-06 03:00:00
6:00 AM,57.2,48.2,72,30.21,6.2,NNE,5.8,-,N/A,,Scattered Clouds,30,2013-03-06 04:00:00
7:00 AM,57.2,48.2,72,30.21,6.2,NE,5.8,-,N/A,,Scattered Clouds,50,2013-03-06 05:00:00
8:00 AM,60,47,51,30.22,6,NNE,10.4,,,,Partly Cloudy,30,2013-03-06 06:00:00
8:00 AM,60.8,46.4,59,30.21,6.2,NNE,10.4,-,N/A,,Scattered Clouds,30,2013-03-06 06:00:00
9:00 AM,62.6,44.6,52,30.21,6.2,NE,13.8,-,N/A,,Partly Cloudy,50,2013-03-06 07:00:00
10:00 AM,64.4,46.4,52,30.21,6.2,NE,11.5,-,N/A,,Partly Cloudy,50,2013-03-06 08:00:00
11:00 AM,66.2,48.2,52,30.24,6.2,NE,9.2,-,N/A,,Partly Cloudy,40,2013-03-06 09:00:00
12:00 PM,68.0,48.2,49,30.21,6.2,NE,11.5,-,N/A,,Partly Cloudy,50,2013-03-06 10:00:00
1:00 PM,68.0,50.0,52,30.21,6.2,NE,11.5,-,N/A,,Partly Cloudy,50,2013-03-06 11:00:00
2:00 PM,68,49,40,30.21,6,NNE,11.5,,,,Scattered Clouds,30,2013-03-06 12:00:00
2:00 PM,68.0,50.0,52,30.21,6.2,NNE,11.5,-,N/A,,Partly Cloudy,30,2013-03-06 12:00:00
3:00 PM,64.4,42.8,45,30.21,-9999.0,North,-9999.0,-,N/A,,Partly Cloudy,0,2013-03-06 13:00:00
4:00 PM,64.4,48.2,56,30.18,6.2,NE,11.5,-,N/A,,Partly Cloudy,40,2013-03-06 14:00:00
5:00 PM,62.6,50.0,63,30.18,6.2,NE,13.8,-,N/A,,Partly Cloudy,50,2013-03-06 15:00:00
6:00 PM,62.6,48.2,59,30.21,6.2,NE,12.7,-,N/A,,Partly Cloudy,40,2013-03-06 16:00:00
7:00 PM,60.8,48.2,63,30.21,6.2,ENE,9.2,-,N/A,,Partly Cloudy,70,2013-03-06 17:00:00
8:00 PM,60,48,55,30.22,6,East,10.4,,,,,80,2013-03-06 18:00:00
8:00 PM,60.8,48.2,63,30.21,-9999.0,East,10.4,-,N/A,,Clear,80,2013-03-06 18:00:00
9:00 PM,60.8,48.2,63,30.21,-9999.0,East,10.4,-,N/A,,Clear,80,2013-03-06 19:00:00
10:00 PM,57.2,50.0,77,30.21,-9999.0,East,6.9,-,N/A,,Clear,90,2013-03-06 20:00:00
11:00 PM,55.4,42.8,63,30.24,-9999.0,East,3.5,-,N/A,,Clear,90,2013-03-06 21:00:00